COSMOS 1275 DEB

Satellite information

Favourite Embed

Satellite Type and Status

DEBRISIN ORBIT

Key statistics

Satellite COSMOS 1275 DEB at a glance.

Uptime

16106

Days in orbit

Revolutions

≈ 13.8

Per day

Orbit

LEO

Low Earth Orbit

Inclination

82.9

Latest

Satellite identification and parameters

Extended collection of information and parameters for COSMOS 1275 DEB.

Object identification

Identified? True

Debris? True

Object name: COSMOS 1275 DEB

International designator: 1981-053CL

Object number (NORAD): 12743

Object ID (CCSDS): 12743

Country: COMMONWEALTH OF INDEPENDENT STATES (CIS)

Current information (Y/N): Y

RCS size: MEDIUM

Orbital parameters

Period: 104.347 minutes

Inclination: 82.9233 deg

SMA: 7341.974 km

Apoapsis: 1012.615 km

Periapsis: 915.064 km

RAAN: 109.5819 deg

Eccentricy: 0.0066434

Argument of periapsis: 65.1422 deg

Mean anomaly: 313.4539 deg

Mean motion: 13.80013927 rev/day

Mean motion (dot): 0.000006 rev/day2

B* drag term: 0.00055401 1/REarth

Two-line elements (TLE)

Creation date: July 9, 2025, 2:22 a.m.

Reference frame: TEME

Reference center: EARTH

Epoch: July 8, 2025, 5:20 p.m. UTC

TLE line 0: 0 COSMOS 1275 DEB

TLE line 1: 1 12743U 81053CL 25189.72265422 .00000600 00000-0 55401-3 0 9993

TLE line 2: 2 12743 82.9233 109.5819 0066434 65.1422 313.4539 13.80013927203896

Live tracking on map

Real-time ground track for satellite COSMOS 1275 DEB.

In-orbit conjunctions

A list of the most updated potential collisions computed for object COSMOS 1275 DEB.

Target Orbit TCA Probability of collision Miss distance Type
NIMBUS 2 DEB SSO 2025-02-06 05:45:18 0.0001332897 62.0 (m) DEBRIS

Associated space launch

Navigation satellite providing location information for the Tsiklon-B navigation system

COSMOS 1275 DEB was lifted into orbit during the mission ‘Kosmos-3M | Parus 27’, on board a Kosmos-3M space rocket.

The launch took place on June 4, 1981, 3:41 p.m. from 132/2.

For more information about the launch, click the button.

Launch to space Kosmos-3M | Parus 27
Kosmos-3M | Parus 27

Agency: N/A

Status: Launch Successful

Launch date: June 4, 1981, 3:41 p.m. UTC

Rocket: Kosmos-3M

Launch pad: 132/2

Location: Plesetsk Cosmodrome, Russian Federation

...

Latest news about this satellite

There are no fresh news available about this satellite. Check back as we update our databases every day.


Newsletter sign-up

Weekly statistics, charts and insights to help you stay on top of the space industry.